Grissom AFB, IN

5:04 PM EST on February 23, 2017 (GMT -0500)
Grissom Air Reserve Base

Weather History for KGUS - January, 2013

Change the Weather History Date:

Friday, January 4, 2013

  Actual Average Record
Temperature  
Mean Temperature 19 °F -  
Max Temperature 26 °F 31 °F 62 °F (1997)
Min Temperature 12 °F 20 °F 5 °F (2003)
Degree Days  
Heating Degree Days 46    
Moisture  
Dew Point 15 °F    
Average Humidity 81    
Maximum Humidity 87    
Minimum Humidity 73    
Precipitation  
Precipitation 0.00 in - - ()
Sea Level Pressure  
Sea Level Pressure 30.30 in    
Wind  
Wind Speed 13 mph (WSW)    
Max Wind Speed 21 mph    
Max Gust Speed 26 mph    
Visibility 10 miles    
Events      
Averages and records for this station are not official NWS values.
T = Trace of Precipitation, MM = Missing Value Source: NWS Daily Summary

Daily Weather History Graph

Daily Weather History Graph

Search for Another Location

Airport or City:

Trip Planner

Search our weather history database for the weather conditions in past years. The results will help you decide how hot, cold, wet, or windy it might be!

Date:

Astronomy

Jan. 04, 2013 Rise Set
Actual Time 8:08 AM EST 5:31 PM EST
Civil Twilight 7:37 AM EST 6:01 PM EST
Nautical Twilight 7:03 AM EST 6:35 PM EST
Astronomical Twilight 6:30 AM EST 7:09 PM EST
Moon 12:07 AM EST (1/4) 11:48 AM EST (1/4)
Length of Visible Light 10h 23m
Length of Day
9h 22m
Waning Gibbous, 55% of the Moon is Illuminated
Jan 4
Waning Gibbous
Jan 4
Last Quarter
Jan 11
New
Jan 18
First Quarter
Jan 26
Full

Hourly Weather History & Observations

Time (EST) Temp. Windchill Dew Point Humidity Pressure Visibility Wind Dir Wind Speed Gust Speed Precip Events Conditions
12:55 AM 17.1 °F 5.0 °F 12.9 °F 84% 30.29 in 10.0 mi WSW 10.4 mph - N/A   Clear
1:55 AM 18.1 °F 4.4 °F 14.0 °F 84% 30.30 in 10.0 mi WSW 13.8 mph - N/A   Clear
2:55 AM 17.4 °F 4.7 °F 13.3 °F 84% 30.31 in 10.0 mi WSW 11.5 mph - N/A   Clear
3:55 AM 15.8 °F 2.7 °F 12.0 °F 85% 30.30 in 10.0 mi WSW 11.5 mph - N/A   Clear
4:55 AM 15.4 °F 3.0 °F 11.7 °F 85% 30.29 in 10.0 mi West 10.4 mph - N/A   Clear
5:55 AM 14.5 °F 0.5 °F 10.9 °F 86% 30.29 in 10.0 mi SW 12.7 mph - N/A   Clear
6:55 AM 14.4 °F 0.2 °F 10.9 °F 86% 30.29 in 10.0 mi WSW 12.7 mph - N/A   Clear
7:55 AM 12.9 °F -0.9 °F 9.7 °F 87% 30.31 in 10.0 mi West 11.5 mph - N/A   Clear
8:55 AM 13.1 °F -1.4 °F 9.7 °F 86% 30.32 in 10.0 mi WSW 12.7 mph - N/A   Clear
9:55 AM 15.4 °F -0.1 °F 10.2 °F 80% 30.31 in 10.0 mi WSW 16.1 mph - N/A   Clear
10:30 AM 17.6 °F 2.2 °F 10.4 °F 73% 30.27 in 10.0 mi West 17.3 mph - N/A   Clear
10:55 AM 17.6 °F 2.2 °F 11.7 °F 78% 30.33 in 10.0 mi West 17.3 mph - N/A   Clear
11:55 AM 19.9 °F 6.7 °F 13.5 °F 76% 30.32 in 10.0 mi WSW 13.8 mph - N/A   Clear
12:55 PM 22.1 °F 7.6 °F 14.7 °F 73% 30.30 in 10.0 mi WSW 18.4 mph - N/A   Clear
1:55 PM 24.3 °F 10.0 °F 17.2 °F 75% 30.27 in 10.0 mi WSW 19.6 mph - N/A   Clear
2:55 PM 26.1 °F 12.0 °F 19.2 °F 75% 30.27 in 10.0 mi WSW 20.7 mph 26.5 mph N/A   Clear
3:55 PM 26.8 °F 14.5 °F 20.3 °F 77% 30.27 in 10.0 mi SW 16.1 mph - N/A   Clear
4:55 PM 25.5 °F 13.3 °F 19.9 °F 79% 30.27 in 10.0 mi SW 15.0 mph - N/A   Clear
5:55 PM 24.4 °F 11.5 °F 19.9 °F 83% 30.27 in 10.0 mi SW 16.1 mph - N/A   Clear
6:55 PM 25.3 °F 12.2 °F 20.8 °F 83% 30.28 in 10.0 mi WSW 17.3 mph - N/A   Clear
7:55 PM 26.1 °F 14.0 °F 21.0 °F 81% 30.30 in 10.0 mi WSW 15.0 mph - N/A   Clear
8:55 PM 25.5 °F 13.8 °F 20.1 °F 80% 30.30 in 10.0 mi WSW 13.8 mph - N/A   Clear
9:55 PM 24.1 °F 12.5 °F 19.2 °F 82% 30.30 in 10.0 mi WSW 12.7 mph - N/A   Clear
10:55 PM 23.4 °F 11.6 °F 18.7 °F 82% 30.31 in 10.0 mi WSW 12.7 mph - N/A   Clear
11:55 PM 20.3 °F 9.0 °F 16.9 °F 87% 30.32 in 10.0 mi SW 10.4 mph - N/A   Clear